, AK

(GMT )
Aniak

Weather History for PANI - January, 2013

Change the Weather History Date:

Tuesday, January 22, 2013

  Actual Average Record
Temperature  
Mean Temperature 13 °F -  
Max Temperature 16 °F 10 °F 39 °F (1999)
Min Temperature 10 °F 0 °F -43 °F (2017)
Degree Days  
Heating Degree Days 52    
Moisture  
Dew Point 7 °F    
Average Humidity 76    
Maximum Humidity 92    
Minimum Humidity 62    
Precipitation  
Precipitation 0.00 in - - ()
Sea Level Pressure  
Sea Level Pressure 29.62 in    
Wind  
Wind Speed 6 mph (NNE)    
Max Wind Speed 9 mph    
Max Gust Speed -    
Visibility 8 miles    
Events      
Averages and records for this station are not official NWS values.
T = Trace of Precipitation, MM = Missing Value Source: NWS Daily Summary

Daily Weather History Graph

Daily Weather History Graph

Search for Another Location

Airport or City:

Trip Planner

Search our weather history database for the weather conditions in past years. The results will help you decide how hot, cold, wet, or windy it might be!

Date:

Astronomy

Jan. 22, 2013 Rise Set
Actual Time 10:23 AM AKST 5:16 PM AKST
Civil Twilight 9:29 AM AKST 6:10 PM AKST
Nautical Twilight 8:34 AM AKST 7:06 PM AKST
Astronomical Twilight 7:42 AM AKST 7:58 PM AKST
Moon 1:31 PM AKST (1/22) 7:11 AM AKST (1/22)
Length of Visible Light 8h 41m
Length of Day
6h 53m
Waxing Gibbous, 84% of the Moon is Illuminated
Jan 22
Waxing Gibbous
Jan 26
Full
Feb 3
Last Quarter
Feb 9
New
Feb 17
First Quarter

Hourly Weather History & Observations

Time (AKST) Temp. Windchill Dew Point Humidity Pressure Visibility Wind Dir Wind Speed Gust Speed Precip Events Conditions
12:16 AM 10.4 °F 0.8 °F 6.8 °F 85% 29.70 in 10.0 mi North 5.8 mph - N/A   Overcast
12:36 AM 10.4 °F -0.4 °F 3.2 °F 73% 29.71 in 10.0 mi North 6.9 mph - N/A   Overcast
12:56 AM 10.4 °F 0.8 °F 5.0 °F 79% 29.70 in 10.0 mi NNE 5.8 mph - N/A   Overcast
1:16 AM 10.4 °F -0.4 °F 6.8 °F 85% 29.70 in 10.0 mi North 6.9 mph - N/A   Overcast
1:36 AM 12.2 °F 1.7 °F 5.0 °F 73% 29.69 in 10.0 mi NNE 6.9 mph - N/A   Overcast
1:56 AM 10.4 °F -1.5 °F 1.4 °F 67% 29.70 in 10.0 mi NNE 8.1 mph - N/A   Mostly Cloudy
2:16 AM 10.4 °F -0.4 °F 3.2 °F 73% 29.69 in 10.0 mi NE 6.9 mph - N/A   Mostly Cloudy
2:36 AM 10.4 °F -0.4 °F 5.0 °F 79% 29.69 in 10.0 mi North 6.9 mph - N/A   Mostly Cloudy
2:56 AM 10.4 °F 0.8 °F 3.2 °F 73% 29.68 in 10.0 mi NNE 5.8 mph - N/A   Overcast
3:16 AM 10.4 °F -0.4 °F 3.2 °F 73% 29.67 in 10.0 mi North 6.9 mph - N/A   Partly Cloudy
3:36 AM 10.4 °F -0.4 °F 3.2 °F 73% 29.66 in 10.0 mi North 6.9 mph - N/A   Clear
3:56 AM 10.4 °F -1.5 °F 3.2 °F 73% 29.67 in 10.0 mi North 8.1 mph - N/A   Partly Cloudy
4:16 AM 10.4 °F -0.4 °F 1.4 °F 67% 29.65 in 10.0 mi North 6.9 mph - N/A   Partly Cloudy
4:36 AM 10.4 °F -0.4 °F 3.2 °F 73% 29.64 in 10.0 mi North 6.9 mph - N/A   Partly Cloudy
4:56 AM 10.4 °F 0.8 °F 3.2 °F 73% 29.65 in 10.0 mi North 5.8 mph - N/A   Partly Cloudy
5:16 AM 10.4 °F - 3.2 °F 73% 29.65 in 10.0 mi Calm Calm - N/A   Scattered Clouds
5:36 AM 10.4 °F 2.2 °F 3.2 °F 73% 29.65 in 10.0 mi North 4.6 mph - N/A   Mostly Cloudy
5:56 AM 10.4 °F 0.8 °F 3.2 °F 73% 29.65 in 10.0 mi NNE 5.8 mph - N/A   Overcast
6:16 AM 10.4 °F -0.4 °F 5.0 °F 79% 29.65 in 10.0 mi NNE 6.9 mph - N/A   Overcast
6:36 AM 10.4 °F -1.5 °F 1.4 °F 67% 29.65 in 10.0 mi NNE 8.1 mph - N/A   Overcast
6:56 AM 10.4 °F -0.4 °F 5.0 °F 79% 29.64 in 10.0 mi NNE 6.9 mph - N/A   Overcast
7:16 AM 12.2 °F 1.7 °F 3.2 °F 67% 29.64 in 10.0 mi NNE 6.9 mph - N/A   Overcast
7:36 AM 12.2 °F 1.7 °F 3.2 °F 67% 29.64 in 10.0 mi NNE 6.9 mph - N/A   Overcast
7:56 AM 12.2 °F 4.3 °F 5.0 °F 73% 29.65 in 10.0 mi NNE 4.6 mph - N/A   Overcast
8:16 AM 12.2 °F 2.9 °F 5.0 °F 73% 29.64 in 10.0 mi NNE 5.8 mph - N/A   Overcast
8:36 AM 12.2 °F 2.9 °F 3.2 °F 67% 29.64 in 10.0 mi North 5.8 mph - N/A   Overcast
8:56 AM 12.2 °F 6.1 °F 6.8 °F 79% 29.64 in 7.0 mi NNE 3.5 mph - N/A   Overcast
9:16 AM 12.2 °F 4.3 °F 6.8 °F 79% 29.64 in 4.0 mi NE 4.6 mph - N/A   Overcast
9:36 AM 12.2 °F 4.3 °F 8.6 °F 85% 29.65 in 3.0 mi NNE 4.6 mph - N/A   Overcast
9:56 AM 12.2 °F 6.1 °F 8.6 °F 85% 29.64 in 2.5 mi NNE 3.5 mph - N/A   Overcast
10:16 AM 12.2 °F 2.9 °F 8.6 °F 85% 29.64 in 7.0 mi NE 5.8 mph - N/A   Overcast
10:36 AM 12.2 °F 2.9 °F 8.6 °F 85% 29.64 in 10.0 mi ENE 5.8 mph - N/A   Overcast
10:56 AM 12.2 °F 6.1 °F 6.8 °F 79% 29.64 in 10.0 mi NE 3.5 mph - N/A   Mostly Cloudy
11:16 AM 12.2 °F 1.7 °F 6.8 °F 79% 29.64 in 3.0 mi ENE 6.9 mph - N/A   Overcast
11:36 AM 12.2 °F 4.3 °F 10.4 °F 92% 29.64 in 10.0 mi NNE 4.6 mph - N/A   Overcast
11:56 AM 14.0 °F 5.1 °F 3.2 °F 62% 29.64 in 10.0 mi NE 5.8 mph - N/A   Overcast
12:16 PM 14.0 °F 5.1 °F 8.6 °F 79% 29.64 in 10.0 mi NNE 5.8 mph - N/A   Mostly Cloudy
12:36 PM 14.0 °F 3.9 °F 8.6 °F 79% 29.63 in 8.0 mi NNE 6.9 mph - N/A   Overcast
12:56 PM 14.0 °F 6.5 °F 8.6 °F 79% 29.63 in 4.0 mi NNE 4.6 mph - N/A   Overcast
1:16 PM 15.8 °F 8.6 °F 10.4 °F 79% 29.63 in 10.0 mi NNE 4.6 mph - N/A   Overcast
1:36 PM 15.8 °F 6.1 °F 10.4 °F 79% 29.62 in 7.0 mi NNE 6.9 mph - N/A   Overcast
1:56 PM 15.8 °F 7.2 °F 6.8 °F 68% 29.62 in 1.2 mi NE 5.8 mph - N/A   Overcast
2:16 PM 15.8 °F 7.2 °F 12.2 °F 86% 29.62 in 1.5 mi NNE 5.8 mph - N/A   Overcast
2:36 PM 15.8 °F 5.1 °F 12.2 °F 86% 29.61 in 7.0 mi NNE 8.1 mph - N/A   Overcast
2:56 PM 15.8 °F 10.2 °F 10.4 °F 79% 29.61 in 5.0 mi NE 3.5 mph - N/A   Overcast
3:16 PM 15.8 °F 8.6 °F 6.8 °F 68% 29.60 in 10.0 mi NNE 4.6 mph - N/A   Overcast
3:36 PM 15.8 °F 8.6 °F 12.2 °F 86% 29.59 in 10.0 mi North 4.6 mph - N/A   Overcast
3:56 PM 15.8 °F 8.6 °F 12.2 °F 86% 29.59 in 10.0 mi North 4.6 mph - N/A   Mostly Cloudy
4:16 PM 15.8 °F 5.1 °F 8.6 °F 73% 29.59 in 3.0 mi NNE 8.1 mph - N/A   Overcast
4:36 PM 15.8 °F 6.1 °F 10.4 °F 79% 29.59 in 3.0 mi North 6.9 mph - N/A   Overcast
4:56 PM 15.8 °F 10.2 °F 12.2 °F 86% 29.58 in 3.0 mi North 3.5 mph - N/A   Overcast
5:16 PM 15.8 °F 8.6 °F 6.8 °F 68% 29.59 in 8.0 mi NNE 4.6 mph - N/A   Overcast
5:36 PM 15.8 °F 8.6 °F 10.4 °F 79% 29.58 in 4.0 mi NE 4.6 mph - N/A   Overcast
5:56 PM 15.8 °F 10.2 °F 10.4 °F 79% 29.58 in 2.5 mi NE 3.5 mph - N/A   Overcast
6:16 PM 15.8 °F 6.1 °F 12.2 °F 86% 29.58 in 3.0 mi NNE 6.9 mph - N/A   Overcast
6:36 PM 15.8 °F 8.6 °F 10.4 °F 79% 29.58 in 2.5 mi NNE 4.6 mph - N/A   Overcast
6:56 PM 15.8 °F 7.2 °F 10.4 °F 79% 29.57 in 3.0 mi NNE 5.8 mph - N/A   Overcast
7:16 PM 15.8 °F 5.1 °F 12.2 °F 86% 29.57 in 5.0 mi NNE 8.1 mph - N/A   Overcast
7:36 PM 15.8 °F 6.1 °F 12.2 °F 86% 29.57 in 5.0 mi North 6.9 mph - N/A   Overcast
7:56 PM 15.8 °F 7.2 °F 8.6 °F 73% 29.57 in 9.0 mi North 5.8 mph - N/A   Overcast
8:16 PM 15.8 °F 6.1 °F 6.8 °F 68% 29.57 in 10.0 mi NNE 6.9 mph - N/A   Overcast
8:36 PM 15.8 °F 7.2 °F 12.2 °F 86% 29.57 in 5.0 mi North 5.8 mph - N/A   Overcast
8:56 PM 15.8 °F - 10.4 °F 79% 29.57 in 10.0 mi Calm Calm - N/A   Overcast
9:16 PM 15.8 °F 8.6 °F 6.8 °F 68% 29.57 in 10.0 mi NNE 4.6 mph - N/A   Overcast
9:36 PM 15.8 °F 4.2 °F 8.6 °F 73% 29.56 in 10.0 mi NNE 9.2 mph - N/A   Overcast
9:56 PM 15.8 °F 6.1 °F 8.6 °F 73% 29.56 in 10.0 mi North 6.9 mph - N/A   Mostly Cloudy
10:16 PM 14.0 °F 3.9 °F 3.2 °F 62% 29.56 in 10.0 mi North 6.9 mph - N/A   Mostly Cloudy
10:36 PM 14.0 °F 3.9 °F 8.6 °F 79% 29.57 in 10.0 mi North 6.9 mph - N/A   Overcast
10:56 PM 14.0 °F 5.1 °F 8.6 °F 79% 29.56 in 10.0 mi North 5.8 mph - N/A   Overcast
11:16 PM 12.2 °F 1.7 °F 3.2 °F 67% 29.56 in 10.0 mi NNE 6.9 mph - N/A   Mostly Cloudy
11:36 PM 12.2 °F -0.2 °F 3.2 °F 67% 29.56 in 10.0 mi NNE 9.2 mph - N/A   Overcast
11:56 PM 12.2 °F 1.7 °F 6.8 °F 79% 29.56 in 10.0 mi NNE 6.9 mph - N/A   Scattered Clouds